Location: Newark
(37.4167°N, 6.2889°W)
Time: 12:36:23
(UTC+00:00)

OTV 5 (USA 277) - Visible Passes

Search period start: 25 March 2019 00:00
Search period end: 04 April 2019 00:00
Orbit: 315 x 320 km, 54.5° (Epoch: 14 March)

Date Brightness Start Highest point End Pass type
(mag) Time Alt. Az. Time Alt. Az. Time Alt. Az.
30 Mar ? 04:54:26 10° SE 04:55:05 11° SE 04:55:44 10° ESE visible
31 Mar ? 05:07:31 13° SSW 05:09:34 32° SE 05:12:02 10° ENE visible
01 Apr ? 05:22:12 16° SW 05:24:11 66° NW 05:26:53 10° NE visible
02 Apr ? 04:05:50 15° E 04:05:50 15° E 04:06:44 10° E visible
02 Apr ? 05:36:44 10° W 05:38:58 22° NW 05:41:12 10° NNE visible
03 Apr ? 04:20:15 34° ENE 04:20:15 34° ENE 04:21:59 10° NE visible
